Temperature
8 10 10 10 9 10 10 10 10 10 9 8 9 9 9 8 7 7 6 6 6 5 5 5 6 6 6 6 6 6 6 6 6 6 6 6 6 6 6 6 6 6 6 6
9 9 9 8 8 8 9 9 10 9 8 8 8 8 9 8 7 6 6 6 5 5 4 5 5 5 5 6 6 6 6 6 6 6 5 5 5 5 5 5 5 6 6 6
9 8 7 7 8 8 8 9 9 8 8 7 7 9 9 8 6 5 5 5 4 4 4 4 4 5 5 5 5 5 5 5 5 5 5 5 4 4 4 4 5 5 5 5
8 7 7 7 8 8 9 8 7 7 8 9 7 10 10 9 7 6 5 5 4 4 3 3 4 4 4 4 4 4 4 4 4 4 4 4 4 4 4 4 4 4 4 4
7 6 6 7 7 7 7 6 6 6 7 7 7 7 10 8 7 7 6 5 4 3 3 3 3 4 4 4 4 4 4 4 4 4 4 4 4 4 4 3 3 3 4 4
6 5 6 6 6 6 5 6 6 6 7 7 7 7 10 9 7 7 6 4 3 3 2 2 3 3 3 3 3 3 3 3 3 3 3 3 3 3 3 3 3 3 3 3
6 6 5 5 6 5 6 7 8 8 8 9 6 6 8 7 6 5 5 4 3 2 2 2 2 2 3 3 3 3 3 3 3 3 3 3 2 2 2 2 2 2 2 2
7 7 5 5 5 6 6 7 8 8 9 9 6 7 8 5 4 3 2 2 2 1 1 1 1 2 2 2 2 2 2 2 2 2 2 2 2 2 2 2 2 1 1 1
7 7 5 4 4 5 5 6 6 6 5 6 8 7 6 5 4 3 2 1 1 1 1 0 1 1 1 1 2 2 2 2 2 1 1 1 1 1 1 1 1 1 1 1
6 5 5 4 4 4 5 5 5 5 6 7 8 7 8 6 5 4 3 2 1 0 0 0 0 0 1 1 1 1 1 1 1 1 1 1 1 1 0 0 0 0 0 0
4 4 4 4 4 5 4 4 4 5 5 6 7 8 6 5 5 4 3 1 0 -0 -0 -0 -0 -0 0 0 0 0 0 0 0 0 0 0 0 -0 -0 -0 -0 -0 -0 -0
3 4 5 4 3 2 4 4 4 5 4 4 5 7 4 3 3 2 1 0 -0 -1 -1 -1 -1 -1 -0 -0 -0 -0 -0 -0 -0 -0 -1 -1 -1 -1 -1 -1 -1 -1 -1 -1
2 3 4 5 3 1 1 2 2 3 4 4 4 6 3 2 1 1 0 0 -0 -1 -1 -1 -1 -1 -1 -1 -1 -1 -1 -1 -1 -1 -1 -1 -1 -2 -1 -1 -2 -2 -2 -2
2 2 4 5 5 3 2 1 1 2 3 4 4 5 4 3 2 1 0 -0 -1 -1 -1 -2 -2 -2 -2 -2 -2 -2 -2 -2 -2 -2 -2 -2 -2 -2 -2 -2 -2 -2 -2 -2
2 2 2 2 2 2 2 1 1 1 2 3 4 4 4 3 2 1 -0 -1 -2 -2 -2 -2 -2 -2 -3 -3 -3 -3 -3 -3 -3 -3 -3 -3 -3 -3 -3 -3 -3 -3 -3 -3
0 1 0 1 1 0 0 1 1 1 1 1 2 2 2 1 -0 -1 -1 -2 -3 -3 -3 -3 -3 -3 -3 -3 -3 -4 -4 -4 -4 -4 -3 -3 -3 -3 -3 -4 -4 -4 -4 -4
-0 -0 0 2 0 -0 2 1 0 0 -0 0 1 2 1 -0 -1 -2 -2 -3 -4 -4 -4 -4 -4 -4 -4 -4 -4 -4 -4 -4 -4 -4 -4 -4 -4 -4 -4 -5 -5 -5 -5 -5
-1 -1 0 1 0 1 3 -0 -0 -0 -1 -1 -1 -1 -1 -2 -3 -3 -3 -4 -4 -4 -4 -4 -5 -5 -5 -5 -5 -5 -5 -5 -5 -5 -5 -5 -5 -5 -5 -6 -6 -6 -6 -6
-2 -1 0 0 1 2 2 -1 -2 -2 -1 -2 -2 -2 -3 -4 -4 -3 -4 -4 -4 -5 -5 -5 -5 -6 -6 -6 -6 -6 -6 -6 -6 -6 -6 -6 -6 -6 -6 -6 -6 -7 -7 -7
-3 -2 -1 -0 1 2 3 -2 -4 -2 -0 -2 -3 -3 -4 -5 -2 -1 -4 -5 -5 -5 -6 -6 -6 -6 -6 -7 -7 -7 -7 -7 -7 -7 -7 -7 -7 -7 -7 -7 -7 -8 -8 -8
-2 -2 -1 -1 0 2 -1 -5 -4 -0 1 -3 -4 -5 -5 -5 -4 -5 -5 -6 -6 -6 -6 -7 -7 -7 -7 -8 -8 -8 -8 -8 -8 -8 -8 -8 -8 -8 -8 -8 -8 -8 -8 -9
-1 -1 -2 -1 -0 1 -5 -5 -3 -2 -4 -5 -5 -5 -5 -6 -6 -6 -7 -7 -7 -7 -7 -7 -8 -8 -8 -8 -9 -9 -9 -9 -9 -9 -9 -9 -9 -9 -9 -9 -9 -9 -9 -9
-2 -2 -1 -2 -1 -4 -6 -5 -5 -5 -5 -5 -6 -6 -6 -7 -7 -7 -8 -8 -8 -8 -8 -9 -9 -9 -9 -9 -9 -9 -9 -10 -10 -10 -10 -9 -9 -10 -10 -10 -10 -10 -10 -10
-5 -7 -5 -4 -4 -5 -6 -6 -5 -5 -6 -6 -6 -7 -7 -8 -8 -8 -8 -9 -9 -9 -9 -9 -9 -10 -10 -10 -10 -10 -10 -10 -11 -11 -10 -10 -10 -10 -10 -11 -11 -11 -11 -11
-4 -7 -6 -5 -5 -6 -6 -6 -6 -6 -6 -7 -7 -7 -8 -8 -9 -9 -9 -9 -9 -10 -10 -10 -10 -10 -10 -11 -11 -11 -11 -11 -11 -11 -11 -11 -11 -11 -11 -11 -11 -12 -12 -12
-7 -7 -6 -4 -5 -6 -5 -6 -6 -7 -7 -7 -8 -8 -9 -9 -9 -9 -10 -10 -10 -10 -10 -11 -11 -11 -11 -11 -11 -11 -12 -12 -12 -12 -12 -12 -12 -12 -12 -12 -12 -12 -12 -12
Wind_Speed
1 3 5 6 7 6 5 7 10 9 5 6 11 14 13 8 7 8 8 7 7 7 5 4 4 4 5 5 5 5 5 4 4 3 3 2 2 1 1 1 1 1 1 1
3 5 6 5 5 6 8 9 11 8 4 6 9 14 12 9 8 8 8 7 7 6 5 4 3 4 5 5 5 5 5 5 4 3 3 2 2 1 1 1 1 1 0 1
6 2 3 5 5 7 9 11 11 9 6 4 7 10 9 6 6 6 6 6 6 6 6 5 4 4 4 4 4 4 5 5 5 4 3 2 2 1 1 1 1 1 1 1
3 3 2 4 6 7 9 7 9 8 7 5 3 8 7 6 6 6 6 5 5 5 5 5 5 4 3 3 3 4 4 4 4 5 4 5 4 3 3 3 2 2 2 1
2 1 3 5 5 6 5 2 4 6 7 7 5 7 8 3 6 6 6 5 5 4 4 5 4 4 3 2 2 3 4 4 4 4 5 5 5 4 3 3 3 2 2 2
2 1 2 3 1 3 1 1 1 2 4 7 8 8 8 4 5 5 5 4 4 4 3 3 3 2 2 1 1 2 3 3 4 4 5 5 5 4 4 3 3 2 2 2
3 2 1 1 1 2 2 2 3 3 4 6 3 7 8 3 3 4 5 5 4 3 2 2 2 2 2 2 2 2 2 2 3 4 5 5 5 4 5 4 4 3 3 2
4 4 3 2 3 3 4 4 4 5 5 5 3 8 5 2 3 3 3 3 2 2 1 2 2 2 2 2 2 2 2 2 2 3 4 4 4 4 3 4 3 4 3 3
5 4 0 2 2 3 3 5 3 3 4 7 7 6 6 3 3 2 2 2 2 2 1 2 2 2 2 2 2 2 3 3 3 3 3 3 4 4 4 4 4 4 4 3
4 6 3 1 2 2 3 3 3 4 5 7 8 8 5 4 5 3 3 3 3 2 1 2 2 2 1 2 2 2 3 3 3 3 3 3 3 4 4 4 4 4 4 4
4 5 3 3 6 7 5 5 5 4 4 6 8 6 3 6 5 4 4 3 3 3 2 2 2 2 1 1 1 2 2 3 2 2 3 3 3 3 3 4 4 4 4 4
3 4 6 6 2 2 6 7 8 6 6 6 7 8 1 4 4 4 4 3 3 3 3 2 2 2 2 2 2 2 2 2 2 2 3 3 3 3 3 4 4 4 4 4
4 4 4 3 3 3 4 6 7 6 5 8 9 9 1 2 4 5 5 5 4 3 3 2 2 2 3 3 3 3 2 3 3 2 3 3 3 3 4 4 4 4 4 4
4 5 8 10 5 3 5 7 8 9 8 11 15 17 10 8 8 7 6 5 5 4 4 3 3 3 3 3 3 3 3 3 3 3 3 3 3 3 4 4 4 4 4 4
3 6 8 13 11 8 10 11 12 14 15 14 16 17 17 12 10 8 6 6 5 5 4 4 4 4 4 4 3 3 3 3 3 3 3 3 3 3 3 3 4 3 4 4
3 5 5 9 8 9 12 15 15 17 17 20 21 21 15 10 8 7 7 6 6 6 5 5 5 5 4 4 4 4 4 3 3 3 4 3 3 3 3 3 3 4 4 4
5 5 5 9 6 8 13 13 15 12 13 12 17 17 10 9 9 9 7 6 7 6 6 6 5 5 5 4 4 4 4 4 3 3 4 3 3 3 3 4 4 4 4 4
6 6 5 6 4 11 6 2 8 12 13 14 13 11 9 9 9 6 6 7 7 6 6 6 5 5 5 4 4 3 3 3 3 4 4 3 3 3 3 4 4 4 4 4
8 8 5 4 8 12 7 3 5 8 10 9 12 12 9 7 6 5 4 5 6 6 6 5 5 4 3 3 3 3 3 3 3 4 4 3 3 4 4 4 5 4 4 5
4 6 7 6 7 9 4 2 2 3 7 4 6 8 6 3 6 4 1 4 5 5 4 3 2 2 2 2 2 2 2 3 4 4 4 4 4 4 5 5 5 4 4 5
5 6 10 11 11 10 2 3 5 5 4 0 4 5 5 6 6 3 3 4 4 3 3 2 1 1 2 2 2 2 3 4 4 4 4 4 4 4 5 5 4 4 4 5
8 7 9 8 10 10 4 6 6 4 2 1 3 4 5 6 4 3 3 3 3 3 2 1 1 2 2 1 2 3 3 4 3 3 3 4 4 4 4 4 4 4 4 5
7 7 5 8 7 1 6 5 3 1 2 3 4 4 5 5 5 4 4 3 3 2 2 2 2 2 2 2 2 3 4 3 3 3 3 3 4 3 4 4 4 4 4 4
4 2 4 6 8 6 5 5 4 4 4 4 4 4 4 5 5 4 3 3 3 2 2 2 2 2 3 3 3 3 3 3 3 3 4 3 3 3 3 3 4 4 4 5
4 5 5 7 7 6 6 7 7 5 4 4 4 3 4 4 4 4 3 3 3 2 2 2 2 3 3 3 3 3 3 3 3 3 3 3 3 4 3 3 4 4 5 5
5 6 6 7 5 5 4 2 3 4 4 4 3 3 3 3 3 3 3 3 2 2 2 2 3 3 4 4 4 4 3 3 3 3 3 3 3 3 3 4 4 6 7 8
Wind_Direction
154 194 219 225 226 250 261 261 267 270 281 266 258 266 271 272 263 257 251 246 242 244 241 221 209 200 196 196 198 191 181 180 170 165 171 171 175 145 117 92 75 57 42 95
181 227 238 242 233 238 247 261 272 281 286 268 272 273 271 261 256 259 255 248 245 246 239 228 222 212 206 201 199 197 192 186 178 177 184 190 183 174 151 120 119 143 124 139
214 234 239 225 231 240 247 253 266 277 294 255 286 275 254 247 250 258 257 252 251 244 241 233 223 219 211 209 208 203 200 196 187 178 169 152 156 159 180 183 187 207 202 186
236 254 238 235 241 241 256 254 261 267 272 272 277 284 266 256 253 253 254 252 251 246 243 236 229 224 220 221 212 209 203 202 194 181 178 174 186 200 209 213 210 202 200 208
226 217 228 243 255 242 262 289 258 256 252 266 245 258 273 240 250 257 253 251 253 248 240 233 229 224 221 224 209 201 198 203 197 188 189 192 200 210 209 207 210 205 203 214
258 242 248 252 285 230 212 234 233 215 231 252 240 238 273 242 247 261 260 258 261 255 246 239 232 217 208 202 190 185 191 200 200 192 193 197 202 203 200 203 209 211 216 221
260 221 203 202 215 172 202 245 266 247 232 250 198 234 258 277 269 269 275 280 291 275 253 239 229 219 214 206 199 196 191 201 207 198 199 203 210 210 209 212 217 218 222 229
260 251 200 201 220 218 215 230 242 267 269 278 221 240 254 290 303 296 290 285 285 272 257 244 237 230 223 219 215 216 224 222 217 212 212 211 211 218 222 222 226 225 231 237
245 262 156 229 248 209 200 219 251 265 279 273 255 256 273 251 267 267 277 258 247 253 266 269 265 248 240 233 228 227 229 233 228 228 228 225 219 219 224 229 234 237 240 244
237 260 248 240 199 217 248 196 187 218 260 264 263 255 253 239 238 244 255 243 246 272 295 292 277 269 267 264 255 243 241 242 245 239 235 236 234 234 231 229 231 240 246 242
230 237 246 213 213 216 189 199 213 223 245 258 271 264 233 242 239 241 260 251 245 256 277 288 293 294 299 298 271 254 251 249 248 247 242 241 243 243 244 241 241 244 247 244
211 236 252 237 209 279 228 220 207 227 234 236 261 269 192 242 260 257 266 267 260 260 265 272 294 307 314 311 299 276 263 256 255 254 248 246 248 245 244 250 250 247 248 246
176 208 264 244 202 192 222 227 228 238 244 238 247 261 186 255 268 267 270 274 266 257 262 276 295 300 301 299 296 291 278 266 263 254 246 249 251 250 253 254 257 251 246 248
192 219 234 254 276 207 222 224 218 215 236 246 246 261 265 272 277 278 276 271 260 254 260 268 275 281 288 294 294 292 286 275 259 248 244 250 255 256 259 262 260 257 250 247
209 241 247 260 266 255 248 244 228 224 235 248 260 264 270 270 272 273 272 267 259 257 260 263 266 271 278 287 292 293 289 284 260 246 244 251 258 259 259 260 260 260 257 251
219 242 253 264 258 258 259 251 239 237 242 249 262 270 272 278 277 272 267 259 257 258 262 268 270 272 272 280 291 296 295 286 262 247 250 256 257 256 256 257 258 256 258 256
203 213 241 262 274 281 260 240 226 227 228 233 248 259 270 274 271 271 267 254 255 261 265 267 267 267 273 278 285 287 289 291 268 254 254 254 252 252 255 258 258 254 254 256
206 209 234 269 279 253 258 193 215 228 240 233 243 263 273 273 284 284 268 259 262 268 270 271 273 274 275 280 288 291 286 276 263 258 258 258 253 254 256 254 256 258 258 257
220 213 226 239 255 267 265 214 201 220 251 235 238 259 276 300 300 272 251 262 266 274 278 275 272 267 265 267 281 284 282 277 265 261 263 266 259 256 255 252 255 260 260 261
214 217 224 227 244 256 264 154 177 189 253 226 224 251 268 280 275 287 342 300 290 297 297 290 282 271 260 270 271 266 280 282 275 273 272 273 267 259 257 259 262 263 261 262
193 208 222 232 243 259 268 142 161 209 268 275 221 240 233 233 259 307 320 313 309 307 303 295 273 263 273 280 265 265 275 278 285 288 282 277 273 268 264 263 263 262 263 267
201 202 212 216 231 250 143 150 195 248 356 305 273 255 243 249 271 291 298 303 308 307 302 293 277 284 294 277 253 265 276 289 296 293 288 284 281 278 270 265 266 263 261 263
213 212 213 209 228 328 162 194 236 301 267 279 283 281 264 258 263 274 286 287 290 286 281 277 269 283 294 282 260 265 283 298 297 293 292 292 290 282 273 264 262 262 259 259
229 235 232 248 257 255 230 245 262 257 262 278 283 280 259 255 258 261 270 278 281 276 270 262 260 272 288 293 283 279 293 293 288 288 292 292 287 285 280 271 262 260 259 260
233 192 224 249 272 289 259 246 252 258 265 273 282 274 254 246 251 256 264 271 275 276 272 258 255 266 281 291 292 299 300 292 284 285 287 288 284 282 282 278 274 270 266 264
202 196 209 245 245 239 264 293 278 254 258 255 260 282 281 253 247 255 263 269 270 270 268 263 265 272 281 287 290 298 299 288 278 281 284 284 287 286 282 283 287 280 275 282
Height
1511 1511 1508 1509 1511 1509 1508 1507 1505 1504 1508 1508 1502 1499 1498 1500 1500 1499 1499 1499 1499 1499 1499 1500 1500 1501 1501 1502 1504 1504 1506 1508 1509 1510 1512 1513 1514 1515 1516 1517 1519 1520 1521 1522
1510 1509 1510 1512 1512 1512 1510 1508 1504 1504 1508 1507 1501 1496 1495 1496 1496 1496 1496 1496 1496 1496 1496 1496 1496 1497 1498 1499 1500 1501 1503 1504 1505 1507 1508 1510 1511 1512 1513 1514 1515 1516 1517 1518
1505 1509 1511 1512 1511 1510 1508 1506 1505 1506 1507 1507 1504 1489 1488 1490 1492 1493 1493 1493 1493 1493 1493 1493 1493 1494 1495 1495 1496 1498 1499 1501 1502 1504 1505 1507 1508 1509 1510 1511 1512 1513 1513 1514
1509 1511 1512 1510 1508 1508 1504 1506 1508 1508 1505 1498 1503 1486 1479 1484 1487 1488 1489 1490 1489 1490 1490 1490 1490 1491 1491 1492 1493 1495 1496 1497 1498 1500 1502 1503 1504 1505 1506 1507 1508 1508 1509 1510
1508 1511 1510 1509 1508 1509 1506 1509 1508 1507 1504 1502 1501 1497 1475 1483 1483 1484 1486 1487 1487 1487 1487 1487 1487 1487 1488 1490 1491 1492 1493 1494 1495 1497 1498 1499 1500 1502 1503 1503 1504 1504 1505 1506
1510 1512 1511 1509 1510 1510 1510 1509 1508 1507 1503 1498 1494 1494 1472 1476 1480 1481 1483 1484 1484 1484 1484 1484 1484 1485 1486 1487 1488 1489 1490 1491 1492 1494 1495 1496 1497 1498 1499 1499 1500 1500 1501 1502
1507 1509 1510 1511 1509 1510 1509 1505 1498 1494 1493 1484 1494 1492 1477 1478 1481 1482 1483 1483 1483 1483 1483 1482 1482 1482 1483 1484 1485 1486 1487 1488 1489 1490 1491 1492 1493 1494 1495 1495 1496 1497 1497 1498
1504 1501 1507 1509 1507 1507 1506 1504 1499 1494 1484 1479 1493 1485 1476 1481 1482 1483 1483 1483 1482 1482 1481 1481 1481 1481 1481 1481 1482 1483 1483 1484 1485 1486 1487 1488 1489 1490 1491 1492 1492 1493 1493 1494
1502 1500 1507 1508 1508 1507 1506 1504 1505 1503 1503 1497 1479 1478 1479 1480 1481 1481 1482 1481 1481 1480 1480 1479 1479 1479 1479 1479 1480 1480 1481 1482 1482 1483 1484 1484 1486 1486 1487 1488 1489 1489 1489 1490
1506 1505 1505 1508 1509 1508 1507 1504 1506 1502 1496 1485 1473 1473 1470 1475 1476 1478 1479 1479 1479 1479 1478 1478 1478 1478 1477 1478 1478 1478 1479 1479 1479 1479 1480 1481 1481 1482 1483 1483 1484 1484 1485 1485
1508 1506 1504 1506 1504 1501 1506 1507 1502 1499 1498 1488 1476 1468 1472 1473 1474 1476 1477 1478 1478 1477 1476 1476 1476 1476 1476 1475 1475 1475 1476 1475 1476 1476 1476 1477 1477 1478 1478 1478 1479 1480 1480 1481
1508 1505 1499 1499 1503 1505 1502 1500 1500 1497 1495 1496 1485 1473 1473 1474 1475 1476 1476 1476 1476 1476 1475 1474 1474 1474 1473 1473 1473 1472 1472 1472 1472 1472 1473 1473 1473 1473 1473 1474 1474 1475 1475 1476
1508 1506 1498 1491 1500 1506 1504 1502 1501 1500 1495 1490 1484 1471 1474 1475 1475 1475 1475 1474 1474 1474 1473 1472 1472 1471 1471 1470 1470 1469 1469 1469 1469 1469 1469 1469 1468 1468 1468 1469 1469 1470 1470 1471
1505 1503 1498 1487 1483 1492 1498 1500 1501 1499 1491 1483 1478 1468 1470 1472 1473 1473 1473 1472 1472 1471 1471 1470 1469 1469 1468 1468 1467 1466 1465 1465 1465 1464 1464 1464 1464 1464 1464 1464 1464 1465 1465 1465
1503 1499 1497 1493 1492 1494 1492 1492 1495 1495 1486 1481 1470 1469 1466 1469 1470 1471 1470 1470 1469 1468 1468 1467 1466 1466 1465 1464 1463 1463 1462 1461 1461 1460 1460 1460 1460 1460 1459 1459 1459 1460 1460 1460
1501 1499 1499 1494 1493 1493 1490 1486 1486 1486 1484 1479 1474 1469 1465 1468 1468 1468 1467 1467 1466 1465 1464 1463 1463 1462 1461 1460 1459 1459 1458 1457 1457 1456 1456 1456 1455 1455 1455 1455 1454 1454 1454 1455
1498 1499 1496 1485 1490 1490 1476 1472 1476 1477 1476 1475 1469 1463 1463 1465 1465 1464 1464 1463 1462 1461 1460 1460 1459 1458 1457 1456 1455 1454 1454 1453 1453 1452 1452 1452 1451 1451 1450 1450 1449 1449 1449 1449
1496 1495 1493 1487 1488 1478 1461 1469 1469 1470 1468 1468 1466 1463 1463 1463 1462 1461 1460 1460 1458 1458 1457 1456 1455 1454 1453 1453 1452 1451 1450 1450 1449 1448 1448 1447 1447 1446 1445 1445 1445 1444 1444 1444
1491 1491 1488 1486 1478 1463 1461 1466 1468 1468 1462 1462 1463 1461 1461 1460 1459 1457 1456 1456 1455 1455 1453 1452 1451 1450 1449 1448 1448 1447 1446 1446 1445 1444 1443 1443 1442 1441 1441 1440 1440 1440 1439 1439
1489 1489 1487 1483 1475 1460 1453 1464 1465 1467 1459 1458 1459 1458 1459 1460 1456 1453 1453 1452 1452 1451 1450 1448 1447 1446 1445 1444 1444 1443 1442 1442 1441 1440 1439 1439 1438 1437 1437 1436 1435 1435 1435 1434
1485 1485 1483 1477 1470 1456 1461 1464 1465 1461 1452 1456 1455 1455 1456 1456 1455 1453 1451 1450 1448 1447 1446 1445 1444 1443 1442 1441 1440 1439 1438 1438 1437 1436 1435 1434 1434 1433 1432 1432 1431 1430 1430 1429
1473 1473 1475 1472 1467 1456 1462 1463 1461 1454 1454 1454 1453 1453 1453 1452 1451 1449 1448 1447 1445 1444 1443 1442 1440 1439 1439 1438 1437 1436 1435 1434 1433 1432 1431 1430 1430 1429 1428 1427 1426 1426 1425 1424
1469 1466 1462 1462 1457 1456 1457 1455 1455 1454 1453 1453 1452 1451 1450 1448 1447 1446 1445 1443 1442 1441 1440 1439 1438 1437 1436 1435 1434 1433 1432 1431 1430 1429 1427 1426 1426 1425 1424 1423 1422 1421 1420 1419
1466 1467 1465 1461 1455 1454 1454 1452 1452 1451 1451 1450 1449 1448 1447 1445 1444 1443 1441 1440 1439 1438 1437 1436 1435 1434 1433 1432 1431 1430 1429 1428 1426 1425 1424 1423 1421 1420 1419 1418 1418 1416 1415 1414
1460 1463 1461 1457 1453 1452 1449 1449 1448 1448 1447 1446 1445 1444 1443 1442 1440 1439 1438 1437 1436 1435 1434 1433 1432 1430 1430 1429 1428 1427 1426 1424 1423 1422 1420 1419 1418 1416 1415 1414 1413 1412 1411 1410
1456 1457 1456 1448 1448 1448 1446 1445 1445 1444 1443 1442 1441 1440 1439 1438 1437 1436 1435 1434 1433 1432 1431 1430 1429 1427 1426 1426 1425 1423 1422 1421 1420 1418 1417 1415 1414 1413 1411 1410 1409 1407 1407 1406